Location: *
(44.1392°N, 4.8079°E)
Time: 06:50:08
(UTC+00:00)

Meteor 2-19 Rocket - Pass Details

Date: 21 June 2021
Orbit: 935 x 959 km, 82.5° (Epoch: 31 July)

Event Time Altitude Azimuth Distance (km) Brightness Sun altitude
Exits shadow 01:33:28 29° 202° (SSW) 1,685 5.2 -17.8°
Maximum altitude 01:36:47 71° 280° (W) 1,006 4.5 -17.5°
Drops below altitude 10° 01:42:55 10° 5° (N) 2,683 7.8 -17.0°
Sets 01:45:26 0° 7° (N) 3,629 8.8 -16.8°
